User: anonymous   Login
Location: *
(40.4270°N, 9.4940°E)
Time: 11:03:59
(UTC+01:00)
Language:

Okean 2 - Orbit

View from above orbital plane
View from above orbital plane
View from above satellite
View from above satellite

Ground track
Ground track

The orbit data is extracted from the following two-line orbital elements,

1 20510U 90018A   15030.31881108  .00003714  00000-0  31948-3 0  9516
2 20510 082.5178 284.9283 0014052 039.8503 108.4103 14.97074181351342
Epoch (UTC): 30 January 2015 07:39:05
Eccentricity: 0.0014052
inclination: 82.5178°
perigee height: 566 km
apogee height: 586 km
right ascension of ascending node: 284.9283°
argument of perigee: 39.8503°
revolutions per day: 14.97074181
mean anomaly at epoch: 108.4103°
orbit number at epoch: 35134

The dashed part of the orbit path shows where the satellite is in the earth's shadow,  

DLR